This demonstration page uses our WeatherBlox Daily Observations layout. Learn more.

Left ArrowRight Arrow

Hourly Observations for July 9, 2022

Temp ( °F °C ) Dew Point ( °F °C ) Humidity (%) Winds ( mph kmh ) Pressure ( in mb ) Visibility ( mi km ) Precip ( " mm )
12:52 am 00:52 Clear 70 21.1 69 20.6 97 97 NNW 3 6 30.12 1020 10 16 0.00 0.00
1:52 am 01:52 Mostly Clear 69 20.6 69 20.6 100 100 NNW 5 7 30.12 1020 10 16 0.00 0.00
2:52 am 02:52 Mostly Clear 69 20.6 68 20 96 96 NNW 7 11 30.11 1020 10 16 0.00 0.00
3:52 am 03:52 Mostly Clear 68 20 68 20 100 100 NNE 5 7 30.12 1020 10 16 0.00 0.00
4:52 am 04:52 Clear 67 19.4 66 18.9 97 97 NNW 3 6 30.13 1020 10 16 0.00 0.00
5:52 am 05:52 Mostly Clear 69 20.6 66 18.9 90 90 SE 5 7 30.14 1021 10 16 0.00 0.00
6:52 am 06:52 Mostly Sunny 68 20 67 19.4 96 96 NNW 5 7 30.16 1022 10 16 0.00 0.00
7:52 am 07:52 Sunny 71 21.7 68 20 90 90 NNW 3 6 30.18 1022 10 16 0.00 0.00
8:52 am 08:52 Mostly Sunny 75 23.9 68 20 79 79 SE 7 11 30.18 1022 10 16 0.00 0.00
9:52 am 09:52 Mostly Sunny 76 24.4 68 20 77 77 ESE 6 9 30.19 1022 10 16 0.00 0.00
10:52 am 10:52 Mostly Sunny 79 26.1 68 20 69 69 ESE 5 7 30.19 1022 10 16 0.00 0.00
11:52 am 11:52 Partly Cloudy 81 27.2 68 20 65 65 ESE 3 6 30.19 1022 10 16 0.00 0.00
12:52 pm 12:52 Partly Cloudy 82 27.8 67 19.4 60 60 E 7 11 30.18 1022 10 16 0.00 0.00
1:52 pm 13:52 Partly Cloudy 84 28.9 68 20 59 59 E 10 17 30.16 1021 10 16 0.00 0.00
2:52 pm 14:52 Mostly Cloudy 84 28.9 68 20 59 59 ESE 10 17 30.15 1021 10 16 0.00 0.00
3:52 pm 15:52 Mostly Cloudy 85 29.4 68 20 57 57 SE 8 13 30.14 1021 10 16 0.00 0.00
4:52 pm 16:52 Mostly Sunny 85 29.4 68 20 57 57 ESE 9 15 30.11 1020 10 16 0.00 0.00
5:52 pm 17:52 Mostly Sunny 85 29.4 68 20 57 57 SE 10 17 30.10 1019 10 16 0.00 0.00
6:52 pm 18:52 Partly Cloudy 84 28.9 67 19.4 57 57 SE 7 11 30.09 1019 10 16 0.00 0.00
7:52 pm 19:52 Partly Cloudy 83 28.3 68 20 61 61 SSE 12 19 30.09 1019 10 16 0.00 0.00
8:52 pm 20:52 Mostly Sunny 81 27.2 68 20 65 65 SSE 10 17 30.08 1019 10 16 0.00 0.00
9:52 pm 21:52 Mostly Clear 78 25.6 68 20 71 71 SSE 7 11 30.09 1019 10 16 0.00 0.00
10:52 pm 22:52 Clear 76 24.4 69 20.6 79 79 SSE 8 13 30.10 1019 10 16 0.00 0.00
11:52 pm 23:52 Clear 75 23.9 69 20.6 82 82 SSE 7 11 30.10 1019 10 16 0.00 0.00

Powered by AerisWeather